STARLINK-2170, 47753

Orbit data source: Space-Track

STARLINK-2170, 47753 is a payload satellite owned by SpaceX/Seattle (US) in LEO that was launched on Thu, 04 Mar 2021 UTC via an FALCON 9 launch vehicle from the Air Force Eastern Test Range (AFETR). Payload-class satellites include a variety of spacecraft equipped with specific instruments for various scientific and technological missions. These include communications satellites like Starlink; space stations such as the ISS; scientific satellites like the Hubble; Earth observation satellites from companies like Planet Labs, Umbra, and HawkEye 360; GPS; miniature CubeSats for education and research; and military/defense satellites.

Loading next visibility...
Identifier
47753, 2021-017AH
Orbit
LEO
Country
Flag of USUS
Related business
Manufacturer
SpaceX/Seattle
Mission
Operational Commercial Communications
Bus & Motor
STARLINK, Unknown motor
Mass
260 kg wet, ~248 kg dry
Launch date (UTC)
2021-03-04 (5 years ago)
Launch vehicle
FALCON 9
Launch site
Air Force Eastern Test Range (AFETR)
Object type
Payload
Rocket body
Debris
Shape & HBR
Box + 1 Pan, 10.1 m
Radar Cross Section
13.562 m², Large (>1 m²)

Expand to show TLE details & history
Last TLE update: 11 hours ago

TLE from 11 hours ago
0 STARLINK-2170
1 47753U 21017AH  25346.97803078 -.00001351  00000-0 -71886-4 0  9995
2 47753  53.0543 240.8810 0001608  94.0863 266.0310 15.06380093264708
Epoch: 2025-12-12T23:28Z
TLE epoch observation values (Epoch: 2025-12-12T23:28:21.859Z)
Latitude
Longitude
166.87802°
Altitude
548.229 km
Speed
7.589 km/s
True Right ascension
16h 03m 31s
True Declination
0° 00' 00"
Sunlit
Object was in daylight at epoch
Visualization orbit readout
Latitude
Unknown
Longitude
Unknown
Altitude
Unknown
Speed
Unknown
Apparent Right ascension
Unknown
Apparent Declination
Unknown
Sunlit
N/A
Visualization observer readout
Local Sidereal Time
09:16:56
Azimuth
Unknown
Elevation
Unknown
Doppler factor
Unknown
Orbital elements
Apogee altitude
548.657 km
Perigee altitude
546.43 km
Semi-major axis
6,925.68 km
Eccentricity
0.00016
Inclination
53.0543°
RAAN
240.881°
Arg. of periapsis
94.0863°
True anomaly
266.01262°
Mean anomaly
266.031°
Eccentric anomaly
266.02181°
Mean motion
3.76573 °/min
Orbital period
95.6 mins
BSTAR
-0.000071886
Loading maneuver chart data...
Computing Atmospheric mass density...
Loading historical data...
Loading historical data...
Loading historical data...
Loading historical data...
Loading historical data...
Loading historical data...
Loading historical data...

Documentation

Showing up to 5 results
|